Volver al catálogo

EXACTVIEW-1

ActivoCienciaSSO
NORAD 38709·PAYLOAD·🇨🇦 Canada

Lanzado Jul 22, 2012 desde Baikonur Cosmodrome

Loading…

Próximos Pases (próximas 24 horas)

TLE

ActualizadoSource: Space-Track

Época: Sep 13, 2026, 22:08 UTC

1 38709U 12039C   26256.92241627  .00000072  00000-0  50547-4 0  9990
2 38709  98.9872  16.3570 0009819 276.4412  83.5649 14.25005616735344

Sigue EXACTVIEW-1 en tiempo real con AllMySat

Download on the App Store